Back to catalog

STARLINK-35953

AliveCommunicationsVLEO
NORAD 66637·PAYLOAD·🇺🇸 United States

Launched Nov 23, 2025 from Vandenberg Space Force Base

Loading…

Next Passes (next 24 hours)

TLE

FreshSource: CelesTrak SupGP

Epoch: Sep 14, 2026, 15:27 UTC

1 66637C 25271W   26257.64423611  .00064792  00000+0  19156-2 0  2572
2 66637  53.1596 337.4028 0001129  78.2842 328.8545 15.34337458    19

Track STARLINK-35953 in real time with AllMySat

Download on the App Store